Date String (YYYY-MM-DD hh:mm:ss) UTC,Instrument flags,absolute air pressure of the measurement (hPa),sample flow rate (lpm),inlet stack bypass flow (lpm),air temperature of the measurement (°C),ambient temperature measured by the external sensor (°C),aerosol sample conditioner tube jacket temperature (°C),OPC LED temperature (°C),internal box temperature (°C),relative humidity of the measurement (%),span deviation,mass concentration of particles derived from Lorenz-Mie calculation of OPC scattering (μg/m³),mass concentration of particles derived from Lorenz-Mie calculation of OPC scattering (μg/m³),mass concentration of particles derived from Lorenz-Mie calculation of OPC scattering (μg/m³)
DateTimeUTC,F1_M11,P_M11,Q1_M11,Q2_M11,T1_M11,T2_M11,T3_M11,T4_M11,T5_M11,U1_M11,ZSPAN_M11,X0_M11,X2_M11,X1_M11
2023-09-04 13:00:00,SystemResetWarning,0825.3,5.00,000.00,028.6,025.1,000.0,036.9,029.6,24.3,0000.0,0002.60,0001.65,0001.30
2023-09-04 13:01:00,SystemResetWarning,0825.3,5.01,000.00,028.5,024.8,000.0,036.9,029.5,24.5,0000.0,0003.60,0001.64,0001.28
2023-09-04 13:02:00,SystemResetWarning,0825.3,5.00,000.00,028.4,025.0,000.0,036.9,029.4,24.7,0000.0,0003.49,0001.61,0001.29
2023-09-04 13:03:00,SystemResetWarning,0825.3,5.00,000.00,028.3,025.3,000.0,036.9,029.5,24.8,0000.0,0003.32,0001.59,0001.28
2023-09-04 13:04:00,SystemResetWarning,0825.3,5.00,000.00,028.3,025.7,000.0,036.9,029.6,24.9,0000.0,0003.23,0001.57,0001.27
2023-09-04 13:05:00,SystemResetWarning,0825.3,5.00,000.00,028.3,026.0,000.0,036.9,029.7,24.9,0000.0,0003.27,0001.59,0001.27
2023-09-04 13:06:00,SystemResetWarning,0825.3,5.00,000.00,028.3,026.2,000.0,036.8,029.7,24.9,0000.0,0003.28,0001.57,0001.25
2023-09-04 13:07:00,SystemResetWarning,0825.3,5.00,000.00,028.3,026.4,000.0,036.8,029.8,25.0,0000.0,0003.18,0001.54,0001.23
2023-09-04 13:08:00,SystemResetWarning,0825.3,5.00,000.00,028.3,026.6,000.0,036.8,029.8,25.0,0000.0,0003.45,0001.54,0001.23
2023-09-04 13:09:00,SystemResetWarning,0825.3,5.01,000.00,028.4,026.8,000.0,036.8,029.9,25.0,0000.0,0003.61,0001.52,0001.22
2023-09-04 13:10:00,SystemResetWarning,0825.3,5.00,000.00,028.4,026.9,000.0,036.8,029.9,25.0,0000.0,0003.61,0001.51,0001.21
2023-09-04 13:11:00,SystemResetWarning,0825.3,5.00,000.00,028.4,027.0,000.0,036.8,029.9,25.1,0000.0,0003.54,0001.49,0001.21
2023-09-04 13:12:00,SystemResetWarning,0825.2,5.00,000.00,028.4,027.1,000.0,036.8,030.0,25.2,0000.0,0002.78,0001.52,0001.22
2023-09-04 13:13:00,SystemResetWarning,0825.3,5.00,000.00,028.4,027.1,000.0,036.9,030.0,25.7,0000.0,0002.66,0001.55,0001.23
2023-09-04 13:14:00,SystemResetWarning,0825.3,5.00,000.00,028.5,027.2,000.0,036.9,030.0,26.5,0000.0,0002.63,0001.54,0001.23
2023-09-04 13:15:00,SystemResetWarning,0825.3,5.00,000.00,028.5,027.2,000.0,036.9,030.1,26.8,0000.0,0002.62,0001.53,0001.23
2023-09-04 13:16:00,SystemResetWarning,0825.3,5.00,000.00,028.5,027.3,000.0,036.9,030.1,26.2,0000.0,0002.67,0001.49,0001.22
2023-09-04 13:17:00,SystemResetWarning,0825.2,5.00,000.00,028.5,027.4,000.0,036.9,030.1,25.6,0000.0,0002.93,0001.47,0001.21
2023-09-04 13:18:00,SystemResetWarning,0825.3,5.00,000.00,028.5,027.4,000.0,036.9,030.2,25.7,0000.0,0003.13,0001.49,0001.21
2023-09-04 13:19:00,SystemResetWarning,0825.2,5.00,000.00,028.6,027.4,000.0,036.9,030.2,25.6,0000.0,0003.10,0001.51,0001.21
2023-09-04 13:20:00,SystemResetWarning,0825.3,5.01,000.00,028.6,027.5,000.0,036.9,030.2,25.6,0000.0,0002.98,0001.53,0001.20
2023-09-04 13:21:00,SystemResetWarning,0825.2,5.00,000.00,028.6,027.5,000.0,037.0,030.2,25.6,0000.0,0002.97,0001.55,0001.20
2023-09-04 13:22:00,SystemResetWarning,0825.2,5.00,000.00,028.6,027.5,000.0,037.0,030.2,25.5,0000.0,0002.94,0001.54,0001.21
2023-09-04 13:23:00,SystemResetWarning,0825.2,5.00,000.00,028.7,027.5,000.0,037.0,030.2,25.6,0000.0,0003.04,0001.60,0001.22
2023-09-04 13:24:00,SystemResetWarning,0825.2,5.00,000.00,028.7,027.5,000.0,037.0,030.2,25.7,0000.0,0003.07,0001.63,0001.23
2023-09-04 13:25:00,SystemResetWarning,0825.2,5.00,000.00,028.7,027.6,000.0,037.0,030.3,25.9,0000.0,0003.14,0001.65,0001.23
2023-09-04 13:26:00,SystemResetWarning,0825.2,5.00,000.00,028.7,027.6,000.0,037.1,030.3,25.6,0000.0,0003.32,0001.69,0001.24
2023-09-04 13:27:00,SystemResetWarning,0825.3,5.00,000.00,028.7,027.4,000.0,037.1,030.3,25.8,0000.0,0003.33,0001.72,0001.25
2023-09-04 13:28:00,SystemResetWarning,0825.3,4.98,000.00,028.7,026.1,000.0,037.0,029.9,25.6,0000.0,0003.07,0001.76,0001.26
2023-09-04 13:29:00,SystemResetWarning,0825.2,5.02,000.00,028.6,024.6,000.0,036.9,029.6,26.1,0000.0,0002.94,0001.77,0001.28
2023-09-04 13:30:00,SystemResetWarning,0825.2,5.01,000.00,028.4,024.3,000.0,036.8,029.4,27.4,0000.0,0003.05,0001.81,0001.29
2023-09-04 13:31:00,SystemResetWarning,0825.2,5.00,000.00,028.3,024.5,000.0,036.8,029.3,28.5,0000.0,0003.15,0001.80,0001.30
2023-09-04 13:32:00,SystemResetWarning,0825.2,5.00,000.00,028.2,024.9,000.0,036.8,029.4,28.7,0000.0,0003.40,0001.77,0001.30
2023-09-04 13:33:00,SystemResetWarning,0825.3,5.00,000.00,028.2,025.3,000.0,036.8,029.5,28.5,0000.0,0003.46,0001.79,0001.30
2023-09-04 13:34:00,SystemResetWarning,0825.3,5.00,000.00,028.2,025.7,000.0,036.8,029.6,29.3,0000.0,0003.34,0001.73,0001.31
2023-09-04 13:35:00,SystemResetWarning,0825.3,5.00,000.00,028.2,026.0,000.0,036.8,029.7,29.4,0000.0,0003.30,0001.70,0001.30
2023-09-04 13:36:00,SystemResetWarning,0825.2,4.99,000.00,028.2,026.3,000.0,036.8,029.8,29.4,0000.0,0003.32,0001.69,0001.30
2023-09-04 13:37:00,SystemResetWarning,0825.2,5.00,000.00,028.3,026.5,000.0,036.8,029.8,27.4,0000.0,0003.25,0001.69,0001.30
2023-09-04 13:38:00,SystemResetWarning,0825.3,5.00,000.00,028.3,026.7,000.0,036.8,029.9,26.7,0000.0,0003.32,0001.70,0001.30
2023-09-04 13:39:00,SystemResetWarning,0825.2,5.00,000.00,028.3,026.9,000.0,036.8,029.9,27.5,0000.0,0003.28,0001.69,0001.29
2023-09-04 13:40:00,SystemResetWarning,0825.2,5.00,000.00,028.3,027.0,000.0,036.8,029.9,27.9,0000.0,0003.25,0001.67,0001.29
2023-09-04 13:41:00,SystemResetWarning,0825.2,5.01,000.00,028.4,027.1,000.0,036.8,030.0,27.9,0000.0,0003.11,0001.65,0001.29
2023-09-04 13:42:00,SystemResetWarning,0825.2,5.00,000.00,028.4,027.2,000.0,036.8,030.0,28.1,0000.0,0002.95,0001.64,0001.30
2023-09-04 13:43:00,SystemResetWarning,0825.2,5.00,000.00,028.4,027.3,000.0,036.8,030.0,27.5,0000.0,0002.56,0001.66,0001.31
2023-09-04 13:44:00,SystemResetWarning,0825.2,5.00,000.00,028.5,027.3,000.0,036.8,030.1,28.0,0000.0,0002.52,0001.66,0001.32
2023-09-04 13:45:00,SystemResetWarning,0825.2,4.99,000.00,028.5,027.4,000.0,036.9,030.1,27.1,0000.0,0002.51,0001.65,0001.31
2023-09-04 13:46:00,SystemResetWarning,0825.2,5.00,000.00,028.5,027.5,000.0,036.9,030.2,27.6,0000.0,0002.54,0001.68,0001.32
2023-09-04 13:47:00,SystemResetWarning,0825.2,5.00,000.00,028.6,027.5,000.0,036.9,030.2,28.7,0000.0,0002.63,0001.72,0001.33
2023-09-04 13:48:00,SystemResetWarning,0825.2,5.01,000.00,028.6,027.5,000.0,036.9,030.2,29.2,0000.0,0002.63,0001.72,0001.33
2023-09-04 13:49:00,SystemResetWarning,0825.2,5.00,000.00,028.6,027.6,000.0,036.9,030.3,29.2,0000.0,0002.57,0001.72,0001.33
2023-09-04 13:50:00,SystemResetWarning,0825.2,5.00,000.00,028.7,027.6,000.0,037.0,030.3,29.3,0000.0,0002.63,0001.75,0001.33
2023-09-04 13:51:00,SystemResetWarning,0825.1,5.01,000.00,028.7,027.7,000.0,037.0,030.3,29.9,0000.0,0002.61,0001.75,0001.34
2023-09-04 13:52:00,SystemResetWarning,0825.1,5.01,000.00,028.7,027.7,000.0,037.0,030.4,29.9,0000.0,0002.49,0001.71,0001.33
2023-09-04 13:53:00,SystemResetWarning,0825.1,4.98,000.00,028.7,027.2,000.0,037.0,030.3,29.6,0000.0,0002.46,0001.70,0001.32
2023-09-04 13:54:00,SystemResetWarning,0825.1,5.00,000.00,028.7,025.6,000.0,036.9,029.8,30.2,0000.0,0002.41,0001.69,0001.33
2023-09-04 13:55:00,SystemResetWarning,0825.1,5.01,000.00,028.5,024.7,000.0,036.8,029.6,30.9,0000.0,0002.37,0001.69,0001.32
2023-09-04 13:56:00,SystemResetWarning,0825.1,5.01,000.00,028.4,024.7,000.0,036.8,029.4,30.6,0000.0,0002.47,0001.71,0001.33
2023-09-04 13:57:00,SystemResetWarning,0825.1,5.00,000.00,028.3,025.0,000.0,036.8,029.4,30.8,0000.0,0002.40,0001.67,0001.32
2023-09-04 13:58:00,SystemResetWarning,0825.1,5.00,000.00,028.3,025.4,000.0,036.8,029.6,30.6,0000.0,0002.37,0001.64,0001.31
2023-09-04 13:59:00,SystemResetWarning,0825.1,5.00,000.00,028.3,025.8,000.0,036.8,029.7,30.5,0000.0,0002.34,0001.63,0001.33
